Change the Weather History Date:

Wednesday, June 12, 2013

  Actual Average Record
Temperature  
Mean Temperature 82 °F -  
Max Temperature 84 °F 90 °F 95 °F (1952)
Min Temperature 78 °F 73 °F 60 °F (1974)
Cooling Degree Days 17    
Growing Degree Days 32 (Base 50)    
Moisture  
Dew Point 78 °F    
Average Humidity 89    
Maximum Humidity 100    
Minimum Humidity 79    
Precipitation  
Precipitation 0.00 in - - ()
Sea Level Pressure  
Sea Level Pressure 30.07 in    
Wind  
Wind Speed 6 mph (ESE)    
Max Wind Speed 9 mph    
Max Gust Speed -    
Visibility 10 miles    
Events Thunderstorm    
Averages and records for this station are not official NWS values.
T = Trace of Precipitation, MM = Missing Value Source: NWS Daily Summary

Daily Weather History Graph

Daily Weather History Graph

Search for Another Location

Airport or City:

Trip Planner

Search our weather history database for the weather conditions in past years. The results will help you decide how hot, cold, wet, or windy it might be!

Date:

Astronomy

Jun. 12, 2013 Rise Set
Actual Time 6:27 AM EDT 8:13 PM EDT
Civil Twilight 6:01 AM EDT 8:39 PM EDT
Nautical Twilight 5:29 AM EDT 9:10 PM EDT
Astronomical Twilight 4:56 AM EDT 9:44 PM EDT
Moon 9:49 AM EDT (6/12) 11:06 PM EDT (6/12)
Length of Visible Light 14h 38m
Length of Day
13h 45m
Waxing Crescent, 14% of the Moon is Illuminated
Jun 12
Waxing Crescent
Jun 16
First Quarter
Jun 23
Full
Jun 30
Last Quarter
Jul 8
New

Hourly Weather History & Observations

Time (EDT) Temp. Heat Index Dew Point Humidity Pressure Visibility Wind Dir Wind Speed Gust Speed Precip Events Conditions
12:53 AM 82.0 °F 91.6 °F 79.0 °F 90% 30.06 in 10.0 mi ESE 8.1 mph - N/A   Unknown
1:53 AM 81.0 °F 88.6 °F 78.1 °F 91% 30.06 in - North - - N/A   Unknown
2:35 AM - - - N/A% 30.05 in - North - - N/A Thunderstorm Unknown
2:50 AM - - - N/A% 30.04 in - North - - N/A   Unknown
2:53 AM - - - N/A% 30.05 in - North - - N/A   Unknown
3:53 AM - - - N/A% 30.04 in - North - - N/A   Unknown
4:53 AM - - - N/A% 30.05 in - North - - N/A   Unknown
5:53 AM - - - N/A% 30.06 in - North - - N/A   Unknown
6:53 AM - - - N/A% 30.07 in - North - - N/A   Unknown
7:53 AM - - - N/A% 30.08 in - North - - N/A   Unknown
8:53 AM - - - N/A% 30.08 in - North - - N/A   Unknown
9:00 AM - - - N/A% 30.09 in 10.0 mi ESE 5.8 mph - N/A   Clear
10:00 AM - - - N/A% 30.08 in 10.0 mi ESE 5.8 mph - N/A   Partly Cloudy
10:53 AM 84.0 °F 94.8 °F 78.1 °F 82% 30.08 in 10.0 mi East 4.6 mph - N/A   Scattered Clouds
11:53 AM 84.0 °F 93.7 °F 77.0 °F 79% 30.09 in 10.0 mi East 9.2 mph - N/A   Unknown
12:53 PM 82.9 °F 93.8 °F 79.0 °F 88% 30.09 in 10.0 mi SE 9.2 mph - N/A   Scattered Clouds
1:53 PM 82.0 °F 91.0 °F 78.1 °F 88% 30.08 in 10.0 mi SE 6.9 mph - N/A   Unknown
2:53 PM 82.0 °F 90.2 °F 77.0 °F 85% 30.07 in 10.0 mi SSE 3.5 mph - N/A   Unknown
3:53 PM 81.0 °F 88.6 °F 78.1 °F 91% 30.08 in - North - - N/A   Unknown
4:53 PM - - - N/A% 30.05 in - North - - N/A   Unknown
5:53 PM 82.0 °F 89.4 °F 75.9 °F 82% 30.04 in 10.0 mi NW 5.8 mph - N/A   Unknown
6:53 PM 81.0 °F 87.9 °F 77.0 °F 88% 30.06 in 10.0 mi NW 3.5 mph - N/A   Mostly Cloudy
7:53 PM 81.0 °F 87.9 °F 77.0 °F 88% 30.06 in 10.0 mi Calm Calm - N/A   Mostly Cloudy
8:53 PM 80.1 °F 86.4 °F 78.1 °F 94% 30.06 in 10.0 mi SE 5.8 mph - N/A   Mostly Cloudy
9:53 PM 80.1 °F 86.4 °F 78.1 °F 94% 30.07 in 10.0 mi Calm Calm - N/A   Unknown
10:53 PM 80.1 °F 86.7 °F 79.0 °F 96% 30.06 in 10.0 mi Calm Calm - N/A   Unknown
11:53 PM 78.1 °F - 78.1 °F 100% 30.06 in 10.0 mi Calm Calm - N/A   Unknown